Location: Grust
(42.8833°N, 0.0333°W)
Time: 18:46:41
(UTC+00:00)

ARGOS - Pass Details

Date: 25 October 2020
Orbit: 820 x 835 km, 98.4° (Epoch: 22 November)

Event Time Altitude Azimuth Distance (km) Brightness Sun altitude
Exits shadow 19:32:00 49° 192° (SSW) 1,063 3.6 -28.1°
Maximum altitude 19:33:25 71° 258° (WSW) 882 3.3 -28.4°
Drops below altitude 10° 19:38:51 10° 342° (NNW) 2,455 5.9 -29.4°
Sets 19:41:14 0° 345° (NNW) 3,394 6.7 -29.8°
